This demonstration page uses our WeatherBlox Daily Observations layout. Learn more.

Left ArrowRight Arrow

39.08367, -84.50855

Hourly Observations for May 7, 2020

Temp ( °F °C ) Dew Point ( °F °C ) Humidity (%) Winds ( mph kmh ) Pressure ( in mb ) Visibility ( mi km ) Precip ( " mm )
12:53 am 00:53 Clear 39 3.9 34 1.1 82 82 Calm 30.05 1018 10 16.0934 0 0
1:53 am 01:53 Clear 40 4.4 35 1.7 83 83 Calm 30.06 1018 10 16.0934 0 0
2:53 am 02:53 Clear 37 2.8 35 1.7 93 93 Calm 30.06 1018 10 16.0934 0 0
3:53 am 03:53 Clear 36 2.2 35 1.7 97 97 Calm 30.05 1018 10 16.0934 0 0
4:53 am 04:53 Clear 37 2.8 34 1.1 89 89 Calm 30.05 1018 10 16.0934 0 0
5:53 am 05:53 Clear 36 2.2 34 1.1 93 93 Calm 30.06 1018 10 16.0934 0 0
6:53 am 06:53 Sunny 36 2.2 34 1.1 93 93 Calm 30.07 1018 10 16.0934 0 0
7:53 am 07:53 Sunny 40 4.4 38 3.3 93 93 Calm 30.08 1019 10 16.0934 0 0
8:53 am 08:53 Sunny 48 8.9 37 2.8 66 66 SSW 3 6 30.07 1018 10 16.0934 0 0
9:53 am 09:53 Sunny 55 12.8 37 2.8 51 51 Calm 30.06 1018 10 16.0934 0 0
10:53 am 10:53 Sunny 60 15.6 40 4.4 47 47 SW 6 9 30.05 1018 10 16.0934 0 0
11:53 am 11:53 Mostly Sunny 63 17.2 43 6.1 48 48 W 8 13 30.04 1017 10 16.0934 0 0
12:53 pm 12:53 Mostly Cloudy 66 18.9 40 4.4 39 39 WSW 14 22 30.02 1017 10 16.0934 0 0
1:53 pm 13:53 Mostly Cloudy 66 18.9 38 3.3 36 36 WSW 14 22 29.99 1016 10 16.0934 0 0
2:53 pm 14:53 Mostly Cloudy 68 20 39 3.9 35 35 WNW 15 24 29.98 1015 10 16.0934 0 0
3:53 pm 15:53 Partly Cloudy 69 20.6 37 2.8 31 31 W 18 30 29.98 1015 10 16.0934 0 0
4:53 pm 16:53 Mostly Cloudy 67 19.4 37 2.8 33 33 W 12 19 29.97 1015 10 16.0934 0 0
5:53 pm 17:53 Mostly Cloudy 66 18.9 38 3.3 36 36 W 15 24 29.96 1015 10 16.0934 0 0
6:53 pm 18:53 Mostly Cloudy 64 17.8 39 3.9 40 40 W 10 17 29.94 1014 10 16.0934 0 0
7:53 pm 19:53 Cloudy 63 17.2 39 3.9 41 41 W 9 15 29.94 1014 10 16.0934 0 0
8:53 pm 20:53 Cloudy 60 15.6 40 4.4 47 47 SW 7 11 29.95 1014 10 16.0934 0 0
9:53 pm 21:53 Partly Cloudy 55 12.8 41 5 59 59 SSW 7 11 29.95 1014 10 16.0934 0 0
10:53 pm 22:53 Mostly Cloudy 55 12.8 42 5.6 62 62 SSW 7 11 29.95 1014 10 16.0934 0 0
11:53 pm 23:53 Partly Cloudy 50 10 42 5.6 74 74 SSW 8 13 29.93 1014 10 16.0934 0 0

Powered by AerisWeather